Temp
39 37 35 35 36 38 40 40 40 41 41 39 37 34 33 30 30 36 39 38 39 36 36 38 36 36 36 35 36 36 36 36 35 35 35 35 34 33 33 33 32 32 32 32 32 31 30 30 29 29 29 29 28 27 27 27 26 26 26 26 26 26 25 25 25 25 25 25 25 25 24 24 24 23 24 24 24 24 24 24 24 23 23 22 22 22
39 35 35 38 39 40 40 40 41 41 41 40 37 34 33 32 32 37 39 38 39 36 35 38 37 36 36 36 36 36 36 36 35 35 35 35 35 34 34 33 33 33 33 33 32 31 31 30 30 29 29 29 28 28 27 27 27 26 26 26 25 25 25 25 25 25 25 25 25 25 24 24 24 24 24 25 25 25 25 25 24 23 23 23 22 22
35 34 37 40 40 40 40 40 40 40 40 39 38 34 30 33 35 36 39 39 39 36 35 37 36 35 37 36 36 36 36 36 36 35 35 35 35 34 34 34 33 33 33 32 32 32 31 31 30 30 30 29 29 28 27 27 27 26 26 26 26 25 25 25 25 25 25 25 25 24 24 25 25 26 26 26 26 26 25 25 24 24 23 23 22 22
30 34 40 40 40 41 40 40 40 39 39 38 37 32 29 35 34 30 35 39 38 37 36 37 35 35 37 36 36 36 36 36 36 36 36 35 35 34 35 34 34 33 33 32 32 33 32 32 31 30 30 30 29 29 28 28 27 27 27 26 26 25 25 25 24 24 24 24 24 24 25 25 26 26 26 26 26 25 25 25 25 24 23 23 23 23
33 37 40 40 40 41 39 39 40 37 35 37 38 34 32 36 36 32 36 38 38 37 38 37 30 31 35 35 35 36 36 37 36 36 36 35 35 35 35 34 34 34 33 33 32 33 33 32 32 31 30 30 30 29 29 28 28 27 27 26 26 26 25 25 24 24 25 24 25 25 25 25 25 25 25 25 25 26 25 25 25 25 24 24 23 23
37 39 40 40 40 40 38 38 39 36 32 33 38 38 37 39 38 38 38 36 31 29 36 35 24 25 32 34 35 36 36 36 36 36 35 35 35 35 35 34 34 34 33 33 33 33 33 32 32 31 30 30 30 30 29 28 28 27 27 26 26 26 25 25 25 25 25 25 25 25 26 26 26 25 25 25 25 25 25 25 25 24 24 23 23 23
39 41 40 40 39 39 38 37 39 39 32 29 36 40 41 42 39 38 37 32 25 25 35 37 26 23 28 31 34 36 35 35 35 35 35 34 34 34 35 34 34 34 34 33 33 33 33 33 32 31 30 31 30 30 29 28 28 27 27 26 26 26 25 25 25 25 25 25 25 25 26 26 25 25 25 24 24 24 24 24 24 24 23 23 23 23
40 40 39 39 39 38 37 36 39 40 33 30 38 42 40 40 38 38 37 30 28 30 34 36 31 24 24 28 35 36 35 35 35 35 35 34 34 34 34 34 34 34 34 33 33 33 33 33 32 31 31 31 30 29 28 28 27 27 27 26 26 26 25 25 25 25 25 25 25 25 25 25 25 25 24 24 24 24 23 23 23 23 23 23 22 22
41 39 38 39 38 37 37 37 40 40 36 35 40 41 40 40 39 39 36 30 32 31 26 30 32 25 23 29 36 36 34 34 34 35 35 35 34 34 34 34 34 34 34 34 33 33 33 33 32 31 31 31 30 29 28 28 27 27 26 26 26 26 25 25 25 25 25 25 25 25 25 25 24 24 24 24 24 24 23 23 23 23 22 22 22 22
40 38 39 39 38 37 38 40 41 39 39 39 40 40 40 40 39 39 36 31 30 27 22 26 29 25 22 27 33 34 32 33 35 35 35 35 35 35 35 35 34 34 34 33 33 34 33 33 32 31 31 30 30 28 28 28 27 27 26 26 26 25 25 25 24 24 24 24 24 24 24 24 24 24 24 24 24 23 23 23 23 23 22 22 22 22
40 40 40 39 39 40 40 41 41 40 40 40 39 39 38 38 39 37 35 31 26 24 24 26 29 26 23 25 31 33 33 35 37 35 35 36 36 35 35 35 35 34 33 33 33 34 33 33 32 31 31 30 29 28 28 27 27 27 26 26 25 25 25 25 24 24 24 24 24 24 24 24 24 24 24 24 23 23 23 23 23 23 22 22 22 22
40 38 39 40 40 41 41 40 40 41 40 39 39 37 32 31 32 30 29 28 24 22 25 28 31 28 22 25 33 37 37 37 37 37 37 36 36 36 35 35 35 34 33 33 33 33 33 32 32 31 30 30 29 28 28 28 27 27 26 26 26 25 25 25 24 24 24 24 24 24 24 24 24 24 23 23 23 23 23 23 22 22 22 22 22 22
37 38 39 40 40 40 40 37 37 39 39 39 37 32 26 24 25 24 24 24 23 23 27 30 30 27 24 29 36 39 39 38 38 38 38 38 37 36 35 35 36 35 34 33 33 33 32 32 32 31 30 29 28 28 28 28 28 27 26 26 26 25 25 24 24 24 24 24 24 24 24 24 23 23 23 23 23 23 22 22 22 22 22 22 22 22
31 36 39 39 38 40 40 36 32 33 37 37 33 28 25 23 23 23 23 24 23 24 28 32 30 25 25 32 39 40 39 40 39 39 39 39 38 36 36 35 36 35 34 33 33 33 32 32 32 31 30 29 28 28 28 28 28 27 26 26 26 25 25 25 25 25 25 24 24 24 24 23 23 23 23 23 23 22 22 22 22 22 22 22 22 22
25 28 35 37 37 38 40 39 35 36 37 37 38 35 27 25 24 23 23 23 24 24 26 29 28 24 24 31 39 40 39 39 39 39 39 38 38 37 36 36 35 35 34 33 33 32 32 32 31 30 29 28 28 28 28 28 27 27 26 26 25 25 25 25 25 25 25 24 24 24 23 23 23 22 22 22 22 22 22 22 22 22 22 22 22 22
25 26 36 39 38 40 39 40 41 39 35 36 41 35 28 29 29 25 24 25 24 24 25 25 26 28 31 35 39 39 38 39 38 38 38 38 38 38 37 36 35 35 35 34 33 32 32 31 31 30 29 29 29 29 29 28 27 27 26 26 25 25 25 25 25 25 25 24 24 24 23 23 23 22 22 22 22 22 22 22 22 21 21 21 21 21
25 27 39 40 38 41 39 40 42 37 33 35 35 30 32 38 35 25 23 26 25 23 24 25 25 29 33 35 38 38 37 38 37 37 38 37 37 37 37 36 35 35 35 34 33 32 31 31 31 30 29 29 29 29 29 28 27 27 26 26 26 25 25 25 25 25 24 24 24 23 23 23 23 22 22 22 22 22 22 22 21 21 21 21 21 21
30 28 37 40 37 40 40 40 42 40 38 35 30 32 38 39 36 29 24 24 24 23 24 25 24 26 26 29 36 38 37 37 37 37 37 37 36 36 36 36 36 35 35 34 33 32 31 31 31 30 30 30 30 29 28 27 27 27 26 26 26 25 25 25 25 25 24 24 24 23 23 23 22 22 22 22 22 22 22 22 22 22 21 21 21 21
36 27 32 40 38 39 42 39 37 39 42 38 35 39 37 29 27 27 24 23 23 23 24 24 24 25 24 27 33 36 36 38 38 37 37 37 36 36 36 36 36 35 35 34 33 32 31 31 31 31 30 30 30 29 28 27 27 27 27 26 26 26 25 25 25 25 24 24 24 23 23 23 22 22 22 22 22 22 22 22 22 22 21 21 21 21
39 29 27 38 40 38 39 36 31 32 38 39 38 40 38 31 28 27 26 25 24 23 24 24 24 25 28 33 35 35 37 38 37 37 37 37 37 36 36 36 35 35 35 34 33 32 31 31 31 31 31 31 30 29 28 28 28 28 27 26 26 26 25 25 25 24 24 24 24 23 23 23 22 22 22 22 22 22 22 22 22 22 21 21 21 21
40 32 25 33 40 35 33 34 33 33 35 35 32 32 33 33 32 30 28 27 25 24 23 24 23 24 31 38 38 37 37 37 37 37 37 37 37 37 36 36 35 35 34 34 33 32 31 31 31 31 31 31 30 29 29 29 29 29 28 27 27 26 26 25 25 24 24 24 23 23 23 22 22 22 22 22 22 22 22 22 22 22 22 21 21 21
37 34 27 28 31 29 31 38 39 38 38 36 33 31 32 32 30 27 26 26 27 25 23 24 23 24 33 39 38 38 38 37 38 37 37 37 37 37 37 36 35 34 34 34 33 32 31 31 31 32 32 31 30 30 30 30 29 29 29 28 27 27 26 26 25 24 24 24 23 23 23 23 23 22 22 22 22 22 22 22 22 22 22 22 21 21
38 36 29 26 29 32 36 40 39 39 41 40 37 37 37 35 29 24 23 25 26 25 25 25 23 26 35 39 38 38 38 37 38 37 37 37 37 37 37 36 35 34 34 34 33 32 31 31 32 32 31 31 30 30 30 30 30 29 29 28 28 28 27 27 26 25 24 24 23 23 23 23 23 22 22 22 22 22 22 23 23 23 23 22 22 22
38 35 28 25 31 36 38 41 40 41 40 37 37 40 38 36 34 30 29 28 26 24 25 24 22 26 35 38 38 37 37 37 37 37 37 37 37 37 36 36 35 34 33 34 33 32 31 31 32 32 31 31 30 29 30 30 30 30 29 29 28 28 28 28 27 26 24 24 23 23 23 23 23 23 22 23 23 23 23 23 24 23 23 22 22 22
34 32 29 24 26 28 30 33 34 35 37 35 36 40 39 38 38 35 33 31 26 24 25 24 22 26 33 37 37 37 37 37 37 37 37 36 36 36 36 35 34 33 33 33 32 32 32 32 32 31 30 30 29 29 30 29 29 29 29 29 29 29 28 27 27 26 25 24 24 24 23 23 23 23 23 23 23 23 23 24 24 23 23 23 23 23
35 33 31 24 22 24 24 25 27 30 33 35 36 38 39 39 37 33 29 26 24 24 25 24 23 27 33 36 35 36 37 36 37 37 37 37 36 36 36 35 34 33 32 33 33 33 32 32 31 30 30 29 29 29 29 29 29 29 28 29 29 29 28 27 27 26 25 25 25 24 24 23 23 23 23 23 23 23 23 23 23 23 23 23 23 23
37 35 34 28 25 26 26 28 33 34 31 31 33 35 37 38 39 35 28 24 25 25 24 26 27 27 31 35 36 36 36 36 36 37 36 37 36 36 36 34 34 33 32 32 33 33 32 31 30 30 29 29 29 29 29 29 29 28 28 28 28 28 28 27 26 26 25 25 25 25 24 24 23 23 23 23 23 23 23 23 23 23 22 22 22 22
35 32 34 33 30 32 33 34 38 38 33 31 32 33 35 38 38 33 28 27 30 26 23 28 31 27 29 36 37 36 37 36 36 36 36 36 36 36 36 34 33 33 32 32 32 32 32 31 30 29 29 29 29 28 28 28 28 28 28 27 27 28 28 27 26 25 25 25 25 24 24 24 24 23 23 23 23 22 22 22 22 22 21 21 21 22
34 30 33 35 32 34 38 37 38 39 36 36 35 34 35 37 35 32 30 33 33 27 24 29 30 28 32 37 37 36 37 36 36 36 36 36 36 36 36 34 33 33 32 32 31 32 31 31 30 29 28 28 28 28 28 28 28 27 27 26 26 27 28 27 26 25 24 24 24 24 24 24 23 23 23 23 23 22 22 22 21 21 21 21 22 22
34 31 35 36 31 33 37 37 39 38 36 35 36 36 37 37 36 35 34 37 36 31 32 33 31 31 35 36 36 37 36 35 36 36 35 36 36 35 35 35 34 33 33 32 31 31 31 30 29 29 28 29 28 28 28 28 27 26 25 26 26 27 27 26 25 25 24 24 24 24 24 23 23 23 23 23 22 22 22 22 21 21 21 21 21 22
33 31 36 36 29 30 35 37 38 37 35 33 34 37 38 37 36 36 36 37 35 32 35 35 30 32 36 36 36 37 35 35 35 35 35 35 35 35 35 34 34 33 33 32 31 31 30 30 29 29 29 29 29 28 28 28 26 24 24 26 27 27 27 26 25 24 24 24 24 24 24 23 23 23 23 22 22 22 22 22 21 21 21 21 21 21
34 32 35 34 26 25 32 35 34 35 34 31 30 34 36 34 34 36 36 37 35 32 32 31 28 31 36 37 36 36 36 35 35 35 35 35 35 35 34 34 34 33 33 33 32 31 30 30 29 29 29 29 29 28 28 27 24 22 23 27 28 27 27 26 25 25 24 24 24 24 24 23 23 23 23 22 22 22 22 22 22 21 21 21 21 21
35 32 31 30 24 24 31 33 32 32 28 26 29 34 36 36 36 36 37 38 37 35 32 29 30 34 37 36 35 35 35 35 35 35 34 34 34 34 33 33 33 33 33 32 32 31 30 30 30 29 29 29 29 28 27 25 22 20 23 27 28 27 27 26 26 25 24 24 24 24 24 23 23 23 23 22 22 22 22 22 22 21 21 22 22 22
35 33 32 31 25 23 29 32 30 27 23 25 33 38 38 38 37 35 36 37 37 36 34 33 35 36 36 35 35 35 35 35 35 34 34 34 33 33 33 33 32 33 33 32 32 31 30 30 30 30 29 29 29 28 26 24 22 22 26 28 27 27 27 26 26 25 25 24 24 24 24 24 23 23 23 23 22 22 22 22 22 22 22 22 22 22
35 34 33 32 27 25 28 29 25 22 25 31 37 38 38 38 37 36 36 37 36 35 35 35 35 35 35 35 35 35 34 35 34 34 34 34 33 33 32 32 32 32 32 31 31 31 30 30 30 30 29 29 29 28 25 24 24 26 27 28 27 26 26 26 25 25 25 24 24 24 24 24 23 23 23 23 23 23 22 22 22 22 22 22 22 22
35 34 32 31 29 26 25 24 22 24 30 35 36 36 36 37 37 35 33 34 37 36 35 35 35 35 35 35 35 35 35 35 34 34 34 34 33 33 32 32 32 32 31 31 31 30 30 30 30 30 29 29 29 28 27 26 27 28 28 27 27 26 26 25 25 25 25 25 24 24 24 24 24 23 23 23 23 23 22 22 22 22 22 22 22 21
35 34 32 29 28 27 23 22 25 26 27 30 33 35 36 36 36 34 30 32 36 36 35 35 35 35 35 35 35 35 35 34 33 34 35 35 33 32 33 33 33 32 31 31 31 30 30 29 30 30 29 29 29 29 29 28 28 28 28 28 27 27 26 26 25 25 25 25 25 25 24 24 24 24 23 23 23 23 23 22 22 22 22 22 21 21
35 34 32 28 27 28 24 23 25 23 23 27 32 35 36 36 37 36 31 31 35 36 35 35 35 34 35 34 35 35 33 33 33 34 35 35 33 33 32 33 33 32 32 31 30 30 29 29 29 29 29 29 29 29 29 29 28 28 28 28 28 27 26 26 26 25 25 25 25 25 24 24 24 24 23 23 23 23 23 23 22 22 22 22 21 21
34 34 34 29 26 26 24 22 23 22 24 30 33 35 36 36 37 36 29 27 33 36 35 35 35 34 34 34 34 34 33 32 33 34 34 34 34 33 32 32 33 32 31 31 30 30 29 29 29 29 29 29 29 29 29 29 28 28 28 28 28 27 27 26 26 26 25 25 25 25 25 24 24 24 23 23 23 23 23 23 23 22 22 21 21 21
33 33 32 27 24 25 24 23 24 24 28 33 35 35 36 36 36 32 24 25 34 36 35 35 35 34 34 34 34 34 32 32 33 34 34 34 34 33 32 32 32 31 31 31 30 29 29 28 28 29 29 29 29 29 29 28 29 28 28 28 28 28 27 27 26 26 25 25 25 25 25 24 24 23 23 23 23 23 23 23 23 22 22 21 21 21
31 31 30 27 24 25 24 22 24 27 31 34 35 35 36 36 32 26 23 28 35 35 34 35 34 34 35 34 34 34 33 34 34 34 34 34 33 32 32 32 31 31 31 31 30 29 28 28 28 29 29 29 29 29 28 28 28 28 28 28 27 27 27 27 26 26 25 25 25 25 25 24 23 23 23 23 23 23 23 23 22 22 22 22 21 21
27 28 28 27 25 25 25 23 23 26 30 34 35 35 36 32 27 25 28 32 34 34 34 34 34 34 34 34 34 34 34 34 35 34 34 34 32 31 31 31 31 31 31 30 29 28 28 29 29 29 30 29 28 28 29 29 28 28 28 28 27 27 27 27 26 26 25 25 25 25 24 23 23 23 23 23 23 23 23 22 22 22 22 22 21 21
29 26 24 26 27 26 24 23 23 24 28 33 34 34 33 30 27 29 32 33 33 34 34 33 33 34 33 33 33 33 33 34 34 34 34 33 32 31 31 31 31 31 31 30 29 29 29 29 29 30 30 29 29 29 29 28 28 28 27 27 27 27 26 26 26 26 25 25 24 24 23 22 22 23 22 22 22 22 22 22 21 21 21 21 21 21
31 28 24 27 30 26 22 23 25 27 30 33 33 31 31 31 31 31 31 32 33 33 33 33 33 33 32 32 32 32 32 33 33 33 33 32 31 31 31 30 31 31 30 30 30 30 30 29 29 30 30 30 30 30 29 28 28 27 27 27 27 26 26 26 26 25 25 24 23 23 23 22 22 22 21 21 22 22 21 21 21 21 21 21 21 20
30 29 27 28 30 28 25 26 29 31 32 33 32 31 31 32 31 31 31 32 32 32 32 32 32 32 32 32 32 31 32 32 32 32 32 31 31 31 30 30 31 31 31 31 31 30 30 30 29 29 29 29 29 29 28 27 27 26 26 26 26 25 25 25 25 24 24 23 22 22 22 22 21 21 21 21 22 21 21 21 21 21 21 21 20 20
30 30 29 30 30 30 29 29 30 31 31 32 32 32 32 31 31 31 30 30 30 30 31 31 31 31 31 31 31 31 31 32 32 32 31 32 31 30 30 30 31 31 31 31 30 29 30 30 29 29 29 28 27 26 26 26 26 26 26 25 25 25 24 24 23 23 23 22 22 22 21 21 21 21 21 22 22 22 22 22 21 21 20 20 20 20
31 30 31 31 29 28 27 29 31 31 30 32 32 31 31 30 30 30 29 29 30 30 30 30 30 30 30 30 30 30 31 32 32 31 31 31 30 30 30 29 30 30 30 29 29 29 29 30 29 29 28 27 26 26 26 26 26 25 25 25 25 24 23 23 23 22 22 23 22 22 21 21 21 21 21 22 22 22 22 22 21 21 20 19 18 18
29 29 30 31 30 29 27 29 31 30 30 31 30 29 29 29 29 29 29 29 30 30 30 30 30 30 30 30 30 30 30 31 32 31 30 29 29 30 29 29 29 29 28 28 28 28 28 29 29 29 28 27 26 26 25 26 26 26 26 25 25 25 24 23 23 23 23 23 22 22 21 21 21 21 22 22 23 22 22 22 21 21 20 18 18 18
28 28 29 30 30 30 29 28 29 30 30 30 29 28 28 28 28 28 29 29 29 29 29 30 30 30 30 30 31 30 30 31 31 30 28 28 29 29 29 29 28 28 27 27 27 27 27 27 27 27 26 25 25 25 25 25 25 26 26 26 25 25 24 23 23 23 23 23 22 23 22 21 22 22 22 22 22 21 20 20 20 20 19 17 17 17
29 28 29 29 28 28 28 27 27 28 28 28 28 27 27 28 28 28 28 28 28 28 28 29 29 30 30 30 30 30 29 29 30 29 28 29 29 29 28 28 28 27 27 27 26 26 26 26 26 25 25 24 24 24 24 24 24 25 26 26 25 24 23 23 23 23 23 23 23 23 23 22 22 22 22 22 22 20 18 17 18 18 17 16 16 16
29 28 29 28 27 27 27 26 26 26 26 27 27 27 27 27 27 27 27 28 28 28 28 28 28 29 29 29 29 28 27 28 29 29 29 29 29 28 28 28 27 27 27 26 26 25 25 25 25 24 24 24 24 24 24 24 24 24 25 25 24 23 23 23 22 22 23 24 23 23 22 23 23 22 22 21 21 21 19 17 16 15 15 14 14 14
Height
740 757 765 762 759 754 747 743 742 737 737 749 757 761 767 776 782 774 767 760 758 775 780 775 780 784 786 785 780 778 776 780 784 785 786 786 788 791 792 793 795 796 795 795 798 801 804 806 807 809 810 812 814 815 817 818 819 821 822 823 824 826 827 828 829 830 830 831 832 832 833 833 833 833 833 832 831 830 830 831 831 831 830 829 827 827
744 762 763 750 745 741 740 740 737 737 739 746 754 759 761 768 774 767 765 762 757 774 781 772 780 785 783 783 777 776 780 783 783 785 787 785 786 787 788 791 792 792 791 793 797 799 802 804 805 808 809 811 813 814 816 817 819 820 821 822 823 824 826 827 828 829 830 830 831 831 831 832 832 831 831 830 829 829 829 830 830 830 829 828 827 826
759 762 751 739 735 733 737 739 740 745 750 752 751 757 762 759 763 764 761 761 760 773 780 775 783 785 778 778 777 776 780 780 778 780 783 783 785 787 787 789 790 791 792 794 796 798 800 802 803 806 807 809 811 813 815 816 818 819 821 822 822 824 825 826 828 828 829 830 830 831 831 831 831 829 829 829 829 829 829 829 829 828 828 827 826 825
768 759 740 732 732 734 740 741 744 751 755 757 751 755 761 749 758 775 769 764 764 768 774 775 782 781 775 778 778 776 775 775 775 775 777 779 782 784 783 785 787 790 793 795 795 795 798 800 802 804 805 807 810 811 813 815 817 818 820 821 822 824 825 826 827 828 829 829 829 830 830 830 830 829 829 829 829 829 828 828 828 827 827 826 825 824
758 746 730 730 731 736 747 748 751 758 759 759 751 752 757 746 751 767 764 762 765 767 766 773 792 789 779 785 785 777 773 772 775 775 777 777 777 779 779 781 784 787 790 794 795 794 796 798 800 802 805 806 808 810 812 814 816 817 819 820 822 823 825 825 827 827 828 829 829 829 830 829 829 829 829 829 829 828 827 827 826 825 825 825 824 823
745 732 726 734 735 739 752 754 753 758 760 759 752 746 745 740 746 754 755 765 782 787 770 773 808 807 784 788 789 780 779 778 777 779 781 780 778 779 780 781 782 783 786 789 791 792 794 796 799 801 803 805 807 809 811 813 814 816 818 820 821 822 824 825 826 827 828 828 829 829 829 829 829 829 829 828 828 828 827 826 825 825 824 823 823 822
734 723 724 735 738 744 754 753 748 749 759 761 747 739 737 734 743 749 751 770 793 793 769 766 803 814 797 795 788 779 783 784 781 782 783 782 781 780 779 780 781 782 784 786 787 788 790 794 796 799 802 803 806 807 810 812 814 816 817 819 820 822 823 825 826 827 828 828 828 829 828 828 828 828 828 828 828 827 826 826 825 824 823 822 822 821
728 728 732 736 742 750 756 754 744 741 758 759 733 730 742 743 750 750 752 773 780 772 765 763 782 804 804 794 783 777 782 785 784 784 782 781 781 780 778 777 778 780 782 784 786 786 788 792 794 797 801 802 805 807 810 812 814 815 817 818 820 821 823 824 826 826 827 828 828 828 828 828 828 828 827 827 826 826 826 825 824 823 822 821 820 820
725 736 740 740 747 751 750 745 737 737 752 751 731 729 739 746 752 749 754 770 767 770 786 777 775 802 807 785 774 776 780 787 787 783 781 780 779 779 777 776 776 777 778 780 783 784 786 790 793 796 799 801 804 807 810 811 813 815 816 818 820 821 823 824 825 826 827 827 827 828 828 827 827 827 827 826 825 825 825 824 823 822 822 821 819 819
724 730 729 735 746 745 741 732 725 736 744 737 733 735 737 744 749 750 759 765 766 785 802 785 777 804 812 786 773 778 781 783 782 778 777 775 774 775 774 773 774 775 776 778 779 781 784 788 791 795 798 801 803 806 809 811 812 814 816 818 820 821 823 824 825 826 826 827 827 827 827 827 827 827 826 826 825 825 824 823 823 822 821 820 819 818
717 717 718 727 733 728 726 724 719 728 733 730 738 745 748 752 751 754 758 760 777 797 796 779 770 790 809 790 767 769 771 769 770 772 772 768 767 769 770 770 771 774 776 776 777 779 783 787 790 794 797 800 803 805 808 810 811 814 815 817 819 821 822 823 824 825 825 826 826 826 827 826 826 826 826 825 824 824 823 823 822 821 821 820 819 818
722 727 727 721 719 716 721 729 726 725 729 736 745 751 762 767 766 772 771 774 799 806 784 766 756 772 800 788 758 751 753 754 759 761 761 762 762 764 766 766 765 770 774 774 776 778 781 785 788 792 796 798 802 804 806 809 810 812 815 817 818 820 821 822 823 824 824 825 825 826 826 826 826 826 825 825 824 824 823 822 822 821 820 819 818 818
735 735 729 721 718 717 727 740 740 736 736 744 748 755 776 787 791 800 794 792 805 796 770 757 756 768 781 768 750 746 745 745 747 747 747 751 755 758 761 763 761 764 770 772 774 776 779 783 786 790 794 797 800 803 805 807 809 811 814 816 817 819 820 821 822 823 824 824 824 825 825 825 825 825 825 824 824 823 823 822 821 820 819 818 817 817
748 738 727 730 729 719 725 741 753 751 747 751 751 758 779 792 805 816 804 796 798 782 759 751 762 779 775 755 742 740 738 734 733 738 740 741 746 751 755 759 759 760 766 770 771 774 777 781 784 787 792 795 798 801 803 805 807 810 812 814 816 818 819 820 821 822 823 823 823 824 824 824 824 824 824 823 823 822 822 822 821 820 819 818 817 816
758 756 735 735 735 724 723 729 737 742 745 747 738 743 764 774 789 802 795 793 792 776 759 757 772 786 779 757 737 731 733 731 730 734 737 738 741 744 748 754 757 757 761 766 768 771 775 779 782 785 789 793 795 798 801 804 806 808 811 813 815 816 818 819 820 821 821 822 822 823 823 823 823 823 823 822 822 822 822 821 820 820 819 818 817 816
750 753 728 722 721 720 727 719 714 731 747 742 730 742 758 754 760 775 775 772 774 777 773 771 775 767 754 745 734 733 738 736 736 737 738 743 743 743 747 750 754 756 757 762 766 768 772 776 780 782 786 790 792 796 799 801 804 806 809 811 813 815 816 818 819 820 820 821 822 822 822 822 822 822 822 821 821 821 821 821 820 819 818 817 817 816
746 742 718 718 719 714 722 717 710 727 743 740 741 751 743 729 739 764 771 760 766 787 780 767 770 758 746 745 734 735 743 741 743 744 742 745 746 746 748 748 751 753 753 757 762 764 769 774 777 778 782 785 789 793 796 799 802 804 807 809 811 813 815 816 817 818 819 820 821 821 821 821 821 821 821 820 820 820 820 820 819 819 818 817 816 816
729 734 717 719 730 716 708 712 712 713 721 735 748 741 726 728 739 755 774 775 782 799 780 760 768 765 763 761 741 739 749 745 744 746 744 746 748 750 748 745 748 749 750 754 757 761 766 771 773 774 777 781 785 789 793 796 800 802 805 807 809 811 813 815 816 816 818 818 819 820 820 820 820 820 820 820 820 820 819 819 819 818 817 817 816 815
713 737 730 717 727 720 706 717 728 719 711 721 729 720 725 754 765 765 780 787 792 801 784 765 765 761 762 762 750 749 752 745 743 745 746 747 747 750 749 745 746 746 748 751 755 759 762 766 769 769 773 777 782 787 790 794 797 800 803 805 807 809 811 813 814 815 816 817 818 819 818 819 819 819 819 819 819 819 818 818 818 817 817 816 815 815
705 737 745 719 713 721 720 730 743 739 725 720 723 721 726 744 756 760 770 776 782 791 786 773 770 763 750 741 743 750 747 744 746 746 748 746 743 745 746 745 745 745 746 749 752 756 757 762 766 766 769 773 778 784 788 791 794 797 800 803 805 807 809 811 812 813 814 815 816 817 817 818 818 818 818 818 818 818 817 817 817 816 816 815 815 814
704 730 746 725 711 726 738 735 736 738 736 737 743 743 738 737 741 749 757 759 765 778 784 782 782 769 742 727 733 742 742 742 744 744 746 744 740 740 740 742 743 743 745 747 749 753 756 760 763 764 766 770 776 781 784 788 791 793 797 800 802 805 807 809 810 811 812 813 814 815 815 816 816 816 817 817 817 817 816 816 816 815 815 814 813 813
712 723 737 735 729 738 738 722 718 721 722 731 742 744 741 739 746 763 771 757 750 764 774 779 785 768 740 728 732 736 738 738 737 741 743 740 738 738 737 738 740 741 744 745 748 754 758 759 759 760 764 768 773 778 781 784 787 790 794 797 799 802 804 806 807 809 811 811 813 813 813 814 814 815 815 815 815 815 815 815 814 814 813 812 812 811
706 716 730 737 733 731 722 707 708 711 707 713 724 727 731 733 741 766 778 761 752 759 758 764 778 765 736 726 729 732 735 734 734 738 739 737 736 736 736 735 736 739 742 743 746 752 760 761 757 757 762 766 770 774 778 781 784 787 790 793 796 798 800 803 804 806 808 809 811 811 812 813 813 813 814 813 814 813 813 813 812 811 811 810 810 809
705 720 734 738 727 717 710 702 701 704 709 719 720 714 722 728 730 743 751 747 756 765 763 770 781 766 740 727 727 731 733 732 734 736 738 739 736 735 736 735 736 738 740 742 745 749 757 761 756 755 760 764 767 772 775 778 781 784 787 790 792 795 797 800 801 803 806 807 808 809 810 811 811 812 812 812 812 811 811 810 809 809 809 809 809 808
713 727 736 746 747 740 736 731 726 721 722 729 725 715 716 719 722 729 733 742 761 767 765 777 782 765 746 734 731 734 735 734 734 733 734 737 737 736 735 735 737 739 739 741 744 746 750 754 753 754 758 761 765 769 772 775 778 781 784 787 789 791 794 797 799 801 803 805 806 807 808 809 809 810 810 810 810 809 809 808 808 808 808 807 806 806
712 725 731 748 761 758 756 754 746 738 731 729 727 720 716 716 721 729 735 751 770 766 760 769 772 761 749 741 739 739 738 739 737 733 731 733 735 735 735 735 737 739 741 741 741 743 745 748 750 752 755 759 762 766 769 772 775 778 782 785 786 789 792 795 797 798 800 802 803 804 806 807 807 808 808 808 808 808 808 807 807 806 805 804 804 804
711 722 722 736 744 738 737 736 727 726 731 734 731 725 720 717 718 725 737 750 758 759 760 758 755 758 755 746 741 738 738 741 739 736 734 733 733 734 734 736 737 737 740 740 739 741 743 745 748 749 752 756 759 763 766 769 773 776 780 782 785 788 790 793 795 796 798 800 801 802 804 804 805 806 806 806 806 807 806 806 806 805 804 804 804 803
719 726 718 724 729 721 719 718 713 715 722 726 728 726 723 718 717 725 738 740 740 755 766 754 748 759 755 741 739 737 734 738 738 736 736 732 731 731 732 735 736 736 737 738 739 740 742 745 747 748 752 754 757 761 764 767 771 774 778 782 786 788 790 791 793 795 796 798 799 801 802 803 803 804 804 805 805 805 805 805 805 805 804 804 802 801
720 727 716 718 726 720 715 712 706 705 709 712 716 719 718 718 720 727 732 729 732 748 757 750 751 757 748 737 735 732 731 734 734 732 731 729 729 729 729 733 735 736 736 737 738 738 740 744 745 748 751 753 755 759 761 765 769 773 779 784 787 788 788 790 792 793 795 795 797 799 800 801 802 802 803 803 803 803 803 803 804 803 803 802 800 799
715 724 717 717 723 719 715 711 705 705 711 714 713 711 710 712 715 720 723 720 723 733 737 741 750 750 740 735 731 726 728 731 730 730 729 729 729 728 729 731 733 734 735 735 736 736 738 741 742 746 749 751 753 755 758 763 767 771 778 783 785 785 786 788 790 791 792 793 795 797 798 799 800 800 801 801 801 802 802 802 802 801 801 800 798 798
713 723 715 713 721 720 711 705 705 711 717 718 714 707 705 708 710 712 716 716 720 728 729 734 747 745 733 728 726 723 727 730 731 733 731 729 728 727 728 730 731 731 731 732 733 734 735 738 740 743 745 748 750 752 755 760 763 768 776 780 780 782 783 786 788 789 790 791 793 795 796 797 798 798 799 799 799 800 800 800 799 799 799 797 796 796
716 723 715 716 733 734 716 710 715 717 718 720 719 712 708 711 711 708 710 714 719 728 734 741 750 744 729 722 723 723 725 730 732 731 730 729 727 726 729 730 730 730 729 729 730 732 734 735 737 739 741 744 747 749 754 757 762 772 779 778 776 778 782 784 785 787 788 789 791 793 794 795 796 796 797 797 797 798 797 797 797 796 796 795 794 794
716 723 720 726 743 741 722 717 722 726 734 734 721 709 705 706 706 706 708 711 714 722 737 745 742 732 723 722 728 729 729 730 730 728 728 729 727 727 728 728 728 727 726 726 728 730 732 732 733 735 738 740 743 747 751 756 764 775 779 776 774 777 779 781 782 784 786 787 789 790 791 793 793 794 795 795 795 795 795 795 795 794 794 793 792 792
712 718 720 724 739 742 726 718 727 745 756 739 707 694 698 701 706 712 713 714 716 721 729 732 726 722 722 726 731 732 730 729 727 725 724 725 726 727 726 725 725 724 723 724 725 726 729 730 731 734 736 739 741 745 749 752 760 770 773 772 773 775 776 778 780 781 783 785 787 788 789 791 791 792 792 792 793 793 792 793 792 792 791 790 790 790
711 716 719 720 731 737 725 727 751 763 747 718 697 691 694 697 703 711 713 713 716 720 724 726 726 724 725 725 725 726 726 724 722 721 720 720 722 724 725 724 722 722 722 722 723 725 726 727 730 732 734 738 741 743 747 751 757 764 767 768 771 772 774 776 777 779 781 782 784 785 787 787 788 789 789 790 790 790 790 790 790 790 789 788 788 788
708 714 718 720 728 734 733 743 762 755 725 708 707 702 698 702 707 716 724 720 713 717 723 726 726 723 722 722 720 720 720 719 719 719 717 716 717 719 721 720 719 719 720 720 721 723 724 726 728 730 734 738 740 742 746 750 755 760 763 765 767 769 771 773 775 776 778 779 781 782 783 784 785 786 787 787 787 787 787 787 787 787 787 786 786 786
704 712 718 723 728 733 740 741 741 741 734 726 719 709 704 709 710 717 731 727 713 712 719 721 724 723 722 721 718 716 717 722 726 721 710 709 713 715 715 714 713 715 716 717 719 721 724 726 728 730 734 737 739 741 744 748 753 756 760 762 764 766 769 770 772 773 775 776 777 778 780 781 782 783 784 785 784 784 784 784 784 785 785 784 784 783
702 709 718 728 729 728 738 740 738 750 751 732 718 708 700 700 699 706 726 730 716 711 714 716 721 723 721 721 719 718 723 732 735 723 709 708 711 711 713 712 710 712 715 716 719 721 724 726 727 730 734 736 739 741 743 747 751 754 757 759 761 763 765 767 768 770 771 773 774 775 777 778 779 780 781 782 782 782 782 782 782 782 782 782 781 781
704 707 713 726 729 726 737 745 745 748 739 719 713 706 696 695 695 706 732 739 719 708 709 712 718 721 720 721 719 720 731 740 736 721 711 710 710 710 713 713 710 712 715 716 719 721 723 727 729 732 735 736 738 741 743 746 750 752 755 756 758 760 762 763 765 766 768 771 772 774 775 776 777 778 778 779 779 779 779 779 779 780 780 780 779 778
710 711 714 726 731 729 735 740 735 731 722 709 704 699 692 692 698 722 754 747 713 703 708 710 716 719 717 718 719 722 733 737 730 718 710 709 709 709 711 712 712 713 715 716 719 722 724 727 729 732 734 736 738 741 743 746 749 751 753 754 756 758 759 760 763 765 767 769 770 772 773 773 775 776 776 777 776 777 777 777 777 777 777 777 777 776
716 714 715 724 729 729 735 739 730 720 712 703 700 695 691 697 714 739 753 732 706 704 708 708 714 716 713 716 720 721 723 720 715 713 709 708 710 711 711 712 712 713 714 716 719 722 725 727 729 731 733 735 738 741 744 746 748 749 751 753 755 756 757 759 761 763 766 767 768 770 771 772 773 774 774 774 774 774 775 775 775 775 774 774 774 773
720 719 718 721 726 726 729 732 729 724 713 701 696 693 693 712 734 739 727 712 706 708 708 709 713 712 712 715 716 716 715 709 706 709 709 709 712 712 711 711 712 713 714 716 720 722 724 726 729 731 733 736 739 741 743 745 747 749 750 752 753 754 755 758 760 761 763 765 766 768 769 770 772 772 772 773 772 772 772 772 773 772 772 772 771 770
712 720 722 717 717 723 728 732 738 739 723 702 699 704 709 722 732 724 712 710 709 707 709 713 713 711 714 716 714 713 712 708 706 708 708 709 711 711 711 711 712 713 714 717 720 722 723 726 728 730 733 736 738 741 743 745 746 748 750 750 751 752 754 756 757 759 761 763 764 765 767 769 770 770 771 771 771 770 770 770 770 770 769 769 768 768
705 715 722 715 711 721 733 737 736 730 713 699 707 719 720 716 713 712 713 714 710 709 711 712 711 711 713 715 715 714 713 710 709 710 711 712 713 712 711 712 712 713 714 716 719 721 723 726 728 730 733 735 737 740 742 744 746 747 749 749 750 752 754 755 756 757 758 760 761 763 765 766 766 767 768 769 769 768 768 768 768 767 767 766 766 765
709 710 715 714 713 718 727 729 722 712 705 701 707 713 711 707 707 709 712 713 712 712 711 711 712 711 709 711 714 714 713 710 709 711 712 712 711 711 712 712 712 713 714 715 719 721 723 726 728 731 734 736 738 740 742 743 746 747 747 749 750 751 753 754 755 756 756 757 759 760 762 764 764 765 766 766 766 765 765 765 765 765 765 764 764 763
706 706 709 713 714 714 717 717 712 710 709 705 703 705 706 707 708 709 712 715 714 712 711 711 713 710 709 711 712 712 712 709 707 709 709 709 709 711 711 711 712 713 714 716 720 722 724 726 729 732 734 737 740 742 743 744 745 746 747 748 749 750 752 753 754 755 755 756 756 758 760 762 764 764 764 763 763 763 762 762 763 763 763 763 762 761
703 704 707 712 718 723 725 719 711 712 713 708 706 709 710 710 711 712 714 716 713 711 710 710 710 710 710 709 710 711 710 706 706 708 708 708 710 710 710 711 712 714 716 719 721 724 725 727 729 731 735 738 740 742 744 744 744 745 747 747 748 749 751 752 753 754 755 755 756 757 759 761 761 762 762 760 760 760 760 760 760 761 761 761 762 762
711 710 711 712 714 720 725 719 711 712 713 710 712 716 716 716 715 713 713 713 711 710 710 708 708 709 708 707 707 708 707 704 704 707 710 712 712 709 709 712 713 715 718 721 722 725 726 727 729 731 735 738 739 741 743 743 743 744 745 746 747 748 749 751 752 753 754 755 755 756 758 759 759 759 759 758 757 757 758 758 759 759 759 759 760 761
713 716 715 714 713 715 718 718 715 716 716 714 716 719 719 718 717 715 714 713 712 712 711 709 707 706 705 706 705 706 708 705 702 707 715 717 713 709 709 711 714 717 720 721 723 725 726 728 731 732 735 738 740 741 742 743 744 744 744 745 746 747 748 750 751 752 753 754 755 755 756 756 757 756 756 756 756 756 756 757 758 758 758 758 758 758
713 718 715 716 722 723 724 724 723 724 725 721 720 721 720 718 718 718 717 716 715 715 714 712 709 705 704 705 703 706 712 709 704 709 715 713 711 711 711 712 716 718 720 722 724 726 727 730 732 734 737 739 740 742 743 743 744 744 744 744 745 746 748 750 751 752 753 752 752 753 753 754 754 754 754 755 755 755 756 756 757 757 757 757 757 757
713 717 716 719 725 726 725 725 724 726 727 724 721 721 719 717 718 720 719 718 718 716 714 714 713 710 708 707 705 709 714 711 708 710 711 710 711 713 713 715 717 719 721 723 725 727 729 731 733 735 737 739 740 742 743 743 744 745 745 745 746 748 749 750 751 752 752 751 750 751 751 752 752 752 753 754 754 755 755 755 756 756 756 756 756 756
Wind_Speed
11 9 10 10 11 13 15 13 14 13 9 10 11 10 11 10 8 8 8 11 10 8 6 6 7 12 12 12 13 12 12 11 11 11 10 11 12 11 11 11 11 10 9 11 13 13 13 12 12 11 10 11 11 10 11 11 11 11 11 11 11 10 9 9 9 8 8 7 7 7 8 8 7 8 9 9 9 8 9 9 10 12 12 12 12 12
12 10 12 13 13 15 14 13 15 12 6 5 10 9 10 10 10 13 11 10 9 8 6 7 7 10 12 11 12 13 12 11 12 12 11 12 11 11 12 12 11 10 9 11 12 12 13 13 12 11 10 11 12 11 11 11 11 10 10 10 11 10 9 8 8 7 7 6 6 5 5 5 6 6 6 7 7 7 8 8 10 11 11 11 12 12
12 11 14 16 14 14 15 15 15 10 7 7 9 9 9 9 11 13 12 10 8 6 5 8 7 8 13 12 12 13 12 10 11 12 11 12 11 11 11 12 12 11 11 11 12 12 13 13 13 12 11 12 12 12 12 11 11 11 10 10 10 10 9 8 7 7 6 5 4 2 2 4 5 5 4 6 7 8 9 9 10 11 11 11 12 12
11 12 15 16 16 14 12 13 12 8 7 9 8 8 8 9 11 9 9 11 10 7 6 8 7 7 11 12 11 12 11 11 12 13 12 12 12 12 12 12 12 12 12 12 12 12 13 14 14 13 12 13 12 12 13 12 11 11 10 10 9 9 9 8 8 6 5 4 3 2 2 3 4 5 5 6 7 8 8 9 10 10 10 11 12 12
12 14 16 17 16 12 9 10 10 9 8 9 11 8 8 9 8 6 8 12 11 10 9 7 6 6 9 11 10 10 11 11 12 13 13 12 12 12 12 13 13 13 12 13 12 12 13 15 15 14 13 13 13 13 13 12 11 11 10 10 10 9 9 9 8 6 5 4 3 2 2 3 3 4 4 5 6 7 8 9 9 8 9 10 10 11
12 15 18 19 15 12 12 12 12 11 8 9 12 12 13 12 10 10 12 11 7 8 10 9 6 6 9 11 10 9 10 10 10 12 12 12 13 13 13 13 13 13 12 12 13 13 15 16 16 16 15 14 14 13 12 12 11 11 11 11 10 9 9 8 8 6 5 4 2 1 2 3 3 4 4 4 6 7 8 8 9 9 9 9 9 10
10 14 17 16 12 13 14 13 13 14 9 7 12 14 16 10 5 10 11 10 6 7 10 12 9 5 7 9 11 12 13 13 12 13 14 12 12 12 12 13 12 13 13 13 13 14 15 16 17 16 16 15 14 13 12 12 12 11 11 11 10 10 9 9 7 6 5 3 1 1 2 2 3 4 4 5 6 6 6 7 8 9 9 8 9 9
9 13 14 13 13 13 13 11 12 14 10 4 6 16 13 9 8 10 5 7 8 9 9 12 9 8 6 8 11 12 14 15 14 15 15 15 15 15 13 14 14 13 13 12 13 13 14 16 17 17 16 15 14 13 13 12 12 12 12 12 11 10 9 8 7 6 4 2 1 1 2 2 3 4 5 6 6 5 5 7 7 8 9 9 9 9
10 12 14 15 14 11 11 13 13 14 12 2 4 7 11 9 11 10 4 6 9 7 5 8 8 8 6 6 10 12 14 14 15 16 16 16 16 17 16 16 16 15 14 13 13 14 15 17 17 17 17 15 15 15 14 13 13 13 13 12 11 11 10 9 7 6 4 3 2 2 2 3 4 4 6 7 6 5 5 7 7 7 9 9 9 9
12 12 14 16 13 11 13 16 16 17 11 3 1 5 6 7 11 9 8 9 7 5 5 8 9 7 6 8 9 11 12 12 14 13 14 17 18 18 17 17 17 15 13 14 14 14 16 18 17 17 17 16 15 15 14 14 14 13 13 13 12 11 10 9 7 6 5 4 3 3 3 3 4 4 5 6 6 6 6 7 7 7 8 9 9 9
11 13 12 14 13 12 14 11 9 13 7 3 5 6 5 7 8 6 7 7 6 6 8 13 14 10 7 8 9 10 10 10 11 12 15 18 19 19 18 17 17 15 13 14 14 15 17 19 18 18 18 17 16 16 15 15 14 14 14 14 13 11 9 8 7 6 6 5 4 3 3 3 4 5 5 6 6 6 6 6 7 7 8 8 9 9
9 12 10 12 10 8 11 9 5 8 7 4 8 7 6 7 4 4 6 6 7 8 9 14 16 14 9 7 8 7 12 13 12 12 16 18 19 19 17 17 17 16 15 15 14 15 17 17 18 19 19 18 17 17 17 15 15 14 14 14 13 11 9 8 8 7 6 5 4 3 3 3 4 5 5 6 6 5 6 6 6 7 7 8 8 8
9 12 12 12 10 8 10 11 8 9 9 9 9 8 7 6 5 6 7 6 7 8 8 10 11 10 8 7 9 9 9 14 12 10 11 15 19 19 18 17 16 16 16 16 14 14 15 15 17 19 19 20 19 18 18 16 16 15 14 14 13 11 10 9 8 7 6 5 5 4 4 4 4 4 5 5 5 5 5 6 6 7 8 8 8 8
9 13 17 14 11 12 12 9 8 9 10 10 10 8 8 7 6 7 7 6 8 9 9 8 6 7 7 6 10 10 7 7 8 8 9 9 15 18 19 17 16 17 17 15 14 14 14 15 18 20 21 21 20 19 19 17 16 15 14 14 13 12 11 9 8 7 6 6 5 4 4 4 4 4 4 4 4 4 5 6 7 8 8 9 9 9
10 11 14 14 11 13 15 10 9 9 10 10 10 8 7 7 6 6 6 6 7 7 7 7 4 6 6 1 2 1 1 6 3 6 7 6 9 13 17 18 17 17 17 15 15 15 14 18 21 22 22 21 21 21 20 18 17 15 15 15 13 13 12 10 9 7 6 6 5 5 5 4 4 4 4 4 4 4 5 6 7 8 9 9 9 9
11 10 13 16 14 15 16 13 10 10 9 9 9 9 8 8 7 6 6 6 6 5 3 5 4 6 4 4 3 2 3 3 2 3 7 7 8 11 13 17 17 16 17 16 16 16 17 21 23 23 23 22 22 22 20 18 18 16 15 15 14 14 12 11 9 8 6 6 6 5 6 5 5 5 5 5 5 5 5 6 8 8 9 9 9 10
10 10 17 19 16 17 18 15 11 10 8 7 8 10 8 7 8 7 7 7 7 7 5 5 6 6 5 6 10 9 6 6 5 5 8 8 10 12 12 14 16 16 17 16 16 17 18 21 23 24 24 24 23 23 22 20 19 17 16 16 15 14 13 11 9 8 7 6 6 6 6 6 6 6 6 5 5 5 6 6 8 8 9 9 9 9
9 6 18 21 16 16 17 15 13 12 11 7 7 8 8 6 5 6 6 5 6 7 6 6 7 6 5 4 9 11 7 8 8 6 5 7 10 11 11 13 15 16 17 17 17 17 17 21 25 26 25 25 25 24 23 21 19 18 17 16 16 15 13 12 10 9 8 7 6 7 7 6 6 6 6 6 5 5 6 7 7 8 8 9 9 10
9 5 14 19 16 13 13 13 12 12 14 10 4 4 7 6 5 5 5 5 5 6 6 7 7 6 6 4 8 10 6 5 6 5 4 6 9 10 11 12 14 16 16 16 17 16 16 20 24 26 25 26 26 25 24 22 20 19 17 16 16 15 14 12 10 9 8 7 7 7 7 7 6 6 6 6 6 6 7 7 8 8 8 8 8 9
10 7 7 16 17 13 11 11 10 10 12 11 7 4 6 6 5 6 5 5 6 6 6 6 5 4 5 5 9 9 5 2 3 5 4 5 6 8 10 11 13 15 15 15 16 17 17 20 24 27 26 27 27 25 24 23 21 20 18 17 16 15 14 13 11 10 9 8 8 7 7 7 7 7 7 7 7 7 8 8 8 9 9 9 8 9
7 7 6 11 15 13 10 10 11 11 11 10 8 7 8 6 4 4 5 7 7 5 5 5 4 0 3 4 6 8 6 3 1 3 4 4 4 6 8 10 11 13 15 15 16 16 17 20 25 27 26 27 27 25 24 23 21 20 19 18 17 16 15 13 11 11 10 8 8 8 8 7 7 8 7 8 8 8 8 8 9 9 10 9 9 10
6 7 7 8 10 10 10 13 16 16 14 12 10 10 9 8 6 6 6 8 7 6 5 5 5 2 7 6 5 6 4 3 2 1 3 4 3 3 6 9 11 12 14 15 15 14 14 18 24 26 25 26 26 26 25 23 21 20 19 18 17 16 14 13 12 12 10 9 8 8 8 8 8 8 8 8 8 9 9 9 9 10 10 10 10 10
8 7 8 8 8 10 14 17 20 20 16 11 11 12 11 10 8 7 7 7 6 7 6 6 6 2 8 6 5 6 3 1 2 1 3 2 1 2 5 7 10 12 14 15 15 13 13 18 24 25 25 25 26 25 25 23 22 21 20 18 16 15 14 12 12 12 11 9 8 8 8 8 8 8 8 9 9 10 9 9 9 10 9 10 10 11
9 7 8 9 8 9 12 13 16 17 14 11 11 12 12 11 10 9 9 6 4 5 5 6 6 3 6 5 6 6 2 1 2 3 3 2 2 3 5 6 8 11 13 15 15 14 15 20 21 21 23 24 24 25 25 24 22 21 20 18 16 15 14 11 10 11 11 10 9 8 8 8 8 8 9 9 9 10 10 10 10 9 8 9 11 11
8 7 8 9 9 9 9 8 10 12 12 10 10 12 13 14 14 13 9 4 3 7 8 7 7 3 4 4 6 5 2 1 2 4 4 3 3 4 5 5 7 10 12 14 16 17 18 19 17 18 22 23 24 25 25 23 22 21 20 18 16 15 14 12 10 9 10 10 9 8 9 9 9 8 9 9 9 10 10 10 10 9 9 11 11 11
9 8 8 9 10 11 11 9 9 10 10 10 13 16 16 17 17 13 9 6 5 8 10 10 7 3 8 7 6 5 2 1 3 5 5 3 3 4 4 5 7 9 11 14 16 17 17 17 15 18 23 24 25 25 24 24 23 21 19 18 15 13 12 12 11 10 10 9 8 8 9 9 9 9 9 9 9 10 10 10 10 11 11 11 11 12
7 8 11 12 13 12 9 9 10 11 12 12 16 19 18 18 18 14 10 9 7 8 9 9 7 4 8 8 5 4 3 3 5 6 7 5 5 5 5 6 8 9 11 12 14 15 15 16 16 19 23 25 25 26 25 24 23 21 20 18 14 11 11 11 10 10 9 8 7 7 8 9 9 9 9 9 9 10 10 10 11 11 12 12 13 14
5 10 13 15 17 16 13 13 16 18 18 17 19 21 20 20 19 16 13 12 9 9 10 6 7 12 12 9 8 6 3 4 5 7 8 7 7 6 7 8 10 11 12 13 14 15 16 16 16 18 22 25 26 26 25 23 22 21 19 16 13 12 11 11 10 11 10 8 7 8 8 9 8 8 9 9 9 10 10 10 10 11 12 13 14 14
7 10 11 13 16 18 19 20 20 17 16 16 18 20 21 21 20 17 16 16 14 11 9 5 6 12 13 10 10 9 7 6 7 7 8 8 8 8 8 10 11 12 13 15 15 16 17 17 16 17 21 24 25 25 25 23 21 18 15 12 12 13 12 11 11 11 10 9 8 8 9 8 8 8 9 10 10 10 10 10 11 11 12 13 14 14
9 8 11 16 18 19 23 24 21 16 13 16 19 20 20 20 20 19 18 19 18 15 11 9 9 11 10 10 12 8 6 6 7 7 9 9 10 10 10 10 11 12 14 15 16 16 17 17 17 18 21 24 25 26 25 22 20 19 16 14 16 15 13 12 12 12 10 9 9 9 9 9 9 9 9 10 10 10 11 11 11 12 12 13 14 14
8 7 12 16 14 15 20 21 18 16 16 19 20 21 20 19 20 20 18 18 18 15 12 12 12 11 7 8 12 6 1 3 6 8 9 10 11 10 9 9 10 11 13 14 16 16 17 17 18 18 21 24 26 26 25 23 22 21 17 18 18 16 14 13 13 12 11 10 10 10 9 9 9 10 10 10 11 11 12 12 12 12 13 13 14 15
8 8 10 11 9 11 16 16 14 16 19 21 21 21 21 20 19 17 15 15 15 11 8 8 10 9 6 7 9 5 3 6 9 9 9 8 9 10 8 8 9 10 11 13 14 15 17 18 19 19 22 25 27 27 25 23 22 18 16 20 18 16 15 14 13 12 11 11 11 10 10 10 10 10 11 11 12 12 13 13 13 13 13 13 13 14
8 8 8 9 8 11 15 16 14 16 17 16 16 19 20 19 17 15 14 14 10 6 6 7 8 7 5 4 5 6 8 10 9 8 7 7 8 9 9 9 10 10 10 11 12 14 16 16 17 20 23 26 28 27 25 24 23 16 22 21 17 15 15 14 13 12 12 12 11 11 11 11 11 11 11 11 12 12 13 13 13 13 12 12 12 12
10 10 8 8 7 10 15 15 13 14 13 11 11 13 16 16 16 15 14 10 6 5 6 8 7 5 3 3 5 8 8 9 9 8 7 7 8 9 10 10 9 8 8 9 11 13 14 14 16 21 24 26 28 27 27 28 24 24 26 20 17 16 15 14 13 12 12 13 12 12 12 12 12 12 11 11 12 13 13 13 12 12 12 12 11 12
11 10 9 8 7 9 11 11 12 13 11 8 6 8 10 12 14 15 13 11 10 9 9 9 8 5 4 5 6 7 7 8 9 9 9 9 8 8 9 8 7 7 8 9 10 11 12 13 16 20 23 25 26 26 27 28 27 26 23 19 18 17 16 15 14 13 14 13 13 14 13 13 13 12 11 12 12 12 13 13 12 11 11 11 11 11
9 8 8 7 8 9 8 9 10 7 3 2 3 5 7 9 11 13 13 13 11 9 9 9 9 7 6 7 7 6 6 6 7 9 10 9 8 7 8 7 6 7 7 8 10 11 12 14 16 19 21 23 25 25 25 26 26 24 21 20 19 18 17 16 15 15 15 15 15 16 15 14 13 12 12 12 12 12 12 12 12 11 11 11 10 10
8 7 7 7 8 8 9 11 9 4 3 6 6 5 6 7 8 8 9 9 8 7 8 8 8 7 7 7 6 4 3 5 8 10 9 8 7 7 7 5 4 6 7 8 9 11 13 14 16 19 21 23 24 24 23 24 23 21 20 19 19 18 18 17 17 17 17 17 17 17 16 15 13 12 12 11 12 12 12 12 12 11 11 11 10 10
9 8 7 8 8 8 9 11 9 8 9 8 6 6 8 8 5 3 4 5 5 6 10 9 7 6 5 6 5 1 2 6 8 6 2 5 6 7 6 4 4 6 7 9 10 12 13 14 16 19 22 23 23 22 22 22 21 20 19 19 20 19 19 19 19 19 19 19 18 17 16 14 13 12 12 11 12 12 11 12 12 12 11 11 11 11
12 10 8 9 9 9 10 10 9 10 9 6 8 13 13 9 4 3 4 6 6 8 11 10 7 5 4 5 4 1 3 7 7 1 3 4 5 6 7 5 6 8 9 10 12 13 14 15 16 19 21 22 22 21 20 20 20 19 19 20 20 20 20 20 20 19 19 18 17 16 14 13 12 12 12 12 12 11 11 12 12 12 12 12 12 12
13 10 9 11 10 9 10 9 8 8 5 2 5 8 8 7 6 5 8 7 4 6 5 3 4 4 4 5 4 3 5 7 5 2 2 3 4 6 7 6 7 9 10 11 13 14 15 16 18 20 21 21 20 20 19 19 19 19 19 20 19 19 20 20 19 18 17 16 15 15 14 13 12 12 12 12 11 11 12 13 12 13 13 13 13 13
11 10 9 10 11 11 10 10 9 6 1 3 4 3 5 8 7 8 7 3 1 3 2 1 4 4 3 4 5 4 5 6 4 2 1 4 6 7 7 7 9 10 11 13 14 15 16 16 18 20 20 19 18 18 18 18 17 17 18 18 18 19 19 18 17 16 15 15 15 15 13 12 12 13 13 12 11 11 12 12 12 13 13 13 14 13
10 9 9 9 11 10 10 10 11 6 1 1 6 7 6 7 6 3 2 3 2 1 2 1 5 5 4 5 6 5 7 8 5 4 6 6 7 8 9 9 10 10 12 14 15 15 15 16 16 18 19 17 16 16 16 15 15 16 17 17 18 19 18 17 16 15 15 15 15 14 12 12 13 13 12 12 12 12 12 12 13 14 14 14 13 13
8 7 9 9 9 9 10 10 10 6 2 4 5 6 4 4 2 2 2 2 1 1 0 2 4 4 4 7 7 7 10 11 7 5 6 6 7 8 9 10 10 11 13 15 15 15 15 15 16 18 18 15 15 15 13 13 14 15 16 18 19 19 17 16 16 15 16 16 15 14 13 13 13 12 11 13 12 11 12 13 13 14 14 14 14 13
7 6 7 6 5 7 8 7 3 1 3 2 1 2 2 1 3 3 1 1 0 1 3 4 4 4 4 7 8 8 11 11 7 5 5 5 6 8 9 10 10 11 13 14 15 14 14 14 14 15 15 13 12 12 12 13 13 14 16 17 18 16 15 15 16 16 16 16 15 14 13 13 13 13 13 13 12 11 12 13 13 14 14 14 14 13
3 2 4 3 2 2 1 1 2 3 3 3 3 3 3 5 6 4 3 3 2 3 4 5 5 6 7 8 8 8 9 10 8 7 8 8 8 8 9 10 10 11 12 12 13 13 13 12 12 12 11 10 8 7 8 10 11 13 15 15 14 13 13 13 13 14 14 14 13 13 13 12 12 13 12 11 11 11 11 12 13 13 12 13 14 13
2 0 2 2 1 1 3 3 3 3 2 3 5 5 6 7 6 6 6 5 5 5 5 6 7 8 8 9 9 8 9 10 9 9 9 9 9 10 10 10 10 11 11 10 11 11 10 10 10 9 8 7 5 4 5 7 8 9 10 10 9 9 9 10 11 12 12 12 12 13 13 12 12 12 12 11 9 10 11 11 11 12 12 13 13 13
4 4 4 3 3 2 1 2 1 3 2 2 5 6 8 8 8 8 7 6 6 7 7 7 7 8 9 9 10 9 10 11 11 10 9 8 9 11 11 10 10 10 10 10 10 9 8 8 8 8 7 7 7 6 6 6 6 6 6 6 7 7 7 9 11 11 12 12 11 12 13 12 11 11 11 11 9 10 11 9 10 12 12 10 11 14
3 1 4 6 6 3 2 3 1 1 1 3 6 6 7 8 9 9 8 7 7 7 8 7 7 8 9 9 10 10 10 12 11 8 6 6 8 10 10 10 10 11 11 11 10 9 8 7 6 6 6 6 5 2 2 2 3 5 4 5 6 7 7 9 10 11 11 11 10 10 11 10 9 8 9 10 9 8 8 7 10 11 8 6 8 10
2 1 3 4 6 4 4 5 3 3 5 6 8 8 8 8 9 10 10 10 9 9 9 9 9 8 8 9 9 8 9 11 8 8 7 8 8 8 9 10 11 12 12 11 10 10 9 8 7 7 7 6 4 2 1 1 3 5 5 5 6 6 7 9 9 10 10 9 10 10 10 9 9 8 7 8 7 4 3 6 11 11 6 5 7 8
3 5 4 4 7 5 1 4 2 2 4 3 8 10 9 8 8 9 10 10 11 11 11 11 11 9 7 8 8 6 7 7 5 7 10 10 7 7 8 11 11 11 12 12 11 11 11 10 10 9 8 6 5 3 2 1 1 4 6 6 3 3 6 8 9 9 10 10 11 11 10 9 9 8 7 9 8 4 2 5 8 9 5 4 8 8
2 3 4 4 5 1 5 7 5 4 3 4 8 9 8 7 7 8 10 11 11 12 11 11 12 10 7 6 6 6 8 6 5 6 9 7 9 9 9 10 10 11 11 12 12 12 12 12 11 10 9 7 6 5 3 2 1 2 4 3 2 3 6 8 9 9 11 12 10 8 8 10 10 8 8 10 10 9 5 5 4 3 3 2 4 5
Wind_Direction
200 196 201 212 199 204 213 207 217 222 194 187 207 207 189 181 186 201 181 156 181 219 199 181 159 149 160 170 173 175 172 174 171 171 173 167 168 172 175 173 171 175 170 168 170 169 171 172 173 174 172 172 168 168 170 170 172 173 172 168 167 167 166 169 172 181 189 193 207 218 233 245 250 258 255 247 255 264 265 264 263 270 277 276 274 278
206 207 203 211 209 203 209 218 223 242 278 223 209 212 196 185 186 190 177 155 184 223 199 175 170 162 169 179 177 175 175 179 177 176 178 176 173 173 175 172 170 172 167 166 167 170 175 175 174 174 173 170 166 166 167 167 169 171 171 169 166 162 168 179 179 184 195 209 228 231 238 252 255 256 253 256 272 279 272 266 264 270 275 272 270 273
207 218 208 206 218 207 198 215 224 238 273 252 219 210 207 190 179 179 164 159 194 225 193 174 191 186 172 178 181 178 182 182 181 182 180 180 177 175 176 172 172 171 165 167 171 175 179 178 174 175 175 171 168 165 165 166 166 166 169 170 167 161 169 177 178 188 197 210 230 230 235 257 271 278 275 284 292 285 278 276 273 271 271 274 274 274
199 221 215 204 216 217 199 207 218 221 224 239 233 207 216 199 168 167 167 174 196 226 216 182 200 202 168 174 184 184 191 182 182 187 182 183 181 179 179 174 174 173 167 171 176 177 179 181 177 175 175 171 169 167 166 167 165 165 167 166 166 163 164 166 170 184 183 182 197 207 251 266 285 295 287 287 287 278 277 279 275 270 273 279 278 279
201 211 217 215 213 208 207 206 211 224 209 221 235 216 222 209 172 189 187 175 191 218 227 204 206 208 175 180 184 190 204 188 182 191 186 184 182 182 180 175 177 176 173 176 178 177 179 181 177 174 177 172 170 169 168 167 165 164 162 159 159 156 157 159 160 165 164 167 179 194 260 266 271 284 276 278 289 288 286 286 288 288 287 287 286 287
210 200 208 219 209 189 210 213 205 225 217 206 223 228 235 213 175 200 188 166 193 216 218 218 225 211 181 189 191 194 207 196 190 194 193 190 184 185 183 177 180 178 175 179 180 177 177 179 175 173 178 174 171 170 166 165 163 159 157 155 154 149 149 150 150 153 156 163 171 207 273 279 277 279 272 280 295 297 295 296 301 302 298 295 295 294
218 197 199 212 202 190 214 218 202 218 232 214 198 209 247 255 206 218 185 155 218 233 202 207 227 230 189 196 206 204 201 199 203 199 197 197 189 192 188 177 181 180 176 182 183 178 175 177 175 174 178 176 172 167 161 160 159 155 151 150 149 145 143 142 146 154 155 159 171 261 289 291 288 285 285 288 290 292 297 301 302 303 305 306 304 302
206 191 190 197 202 199 212 216 199 208 230 264 181 184 218 260 258 252 189 155 238 248 198 192 220 243 218 195 200 209 205 197 204 205 201 200 195 196 195 182 182 182 178 181 184 180 174 176 175 173 178 178 169 162 161 160 156 152 148 146 144 141 142 145 149 154 158 169 190 268 291 285 286 291 295 291 285 287 299 304 304 307 310 311 311 311
183 189 188 193 207 203 205 212 195 204 221 338 12 191 188 219 243 251 230 207 240 251 212 201 222 243 241 208 193 205 211 201 205 211 206 204 200 197 197 189 184 183 180 181 184 182 175 175 176 173 176 178 167 161 164 161 154 150 147 145 144 144 144 148 151 154 160 168 182 215 259 268 275 287 296 298 297 298 301 302 302 306 309 311 314 315
176 196 195 193 206 197 201 214 194 198 215 125 72 238 182 212 241 238 232 233 219 211 232 231 225 230 245 237 211 205 213 208 203 208 212 212 205 200 198 192 186 182 181 183 186 183 177 178 178 174 176 176 167 163 164 158 152 151 149 148 148 148 148 151 155 160 163 168 183 203 229 252 268 280 291 297 297 293 292 296 299 303 306 307 310 313
169 184 197 194 208 204 197 211 189 188 210 132 175 218 193 208 235 229 235 251 237 220 236 238 225 215 234 247 228 204 202 217 213 206 211 214 207 200 199 195 187 182 184 185 185 182 180 180 179 175 175 173 166 164 162 157 155 153 151 153 151 151 152 155 161 168 172 179 189 203 228 250 272 283 287 289 287 286 288 292 297 301 301 301 303 306
165 172 195 195 208 220 183 173 172 181 198 211 204 207 199 195 206 231 231 239 253 247 241 242 228 212 220 245 247 207 184 201 222 219 210 206 205 199 197 199 189 183 187 185 184 183 179 181 181 178 175 170 166 164 163 161 158 155 155 157 155 155 158 161 169 177 181 191 198 211 240 255 272 280 282 284 282 285 289 292 298 301 299 299 299 302
184 186 195 192 199 224 194 173 182 188 194 216 216 203 203 200 191 223 225 212 238 247 241 250 241 227 233 243 254 255 213 199 203 225 225 203 199 195 194 202 194 183 187 186 186 185 180 182 183 179 174 169 168 166 167 166 159 157 160 162 161 162 165 169 175 183 191 202 207 219 247 258 264 272 274 277 276 276 286 293 298 301 302 304 304 304
186 191 190 189 193 212 214 192 181 189 194 208 217 206 207 215 207 219 229 225 237 239 223 220 228 253 270 253 238 243 254 240 196 203 238 215 198 194 190 199 199 187 186 188 188 185 183 185 183 179 174 171 170 168 169 168 161 159 163 166 168 168 170 175 178 188 200 207 212 224 247 255 255 264 264 266 273 278 285 290 295 299 301 303 304 305
187 189 183 187 189 197 213 211 187 190 197 206 224 225 218 227 231 230 234 232 241 246 214 182 173 249 263 288 253 203 332 295 248 185 220 222 204 201 189 192 200 193 187 187 187 184 185 188 184 179 176 174 171 170 172 169 163 162 166 170 172 171 175 179 180 189 201 204 212 225 239 245 246 256 260 259 267 274 281 286 292 295 293 294 297 300
197 189 176 191 195 188 207 217 196 197 203 201 222 232 221 227 239 252 262 257 264 275 220 176 200 254 246 123 138 156 152 220 240 192 212 207 208 216 196 189 197 198 191 187 186 185 186 189 186 178 176 176 173 172 173 170 166 166 169 174 175 175 179 181 183 189 197 203 212 223 230 234 238 242 246 248 250 260 274 284 289 290 289 289 290 294
209 193 170 188 199 190 207 220 201 210 217 185 205 228 222 227 241 250 251 248 259 271 248 213 230 238 235 195 176 173 173 175 171 206 215 200 204 216 206 193 196 199 195 188 186 185 184 187 188 180 176 176 175 175 174 170 169 170 172 176 177 179 182 183 186 189 192 202 212 219 223 227 232 235 243 248 248 257 270 278 284 288 287 286 286 287
224 195 157 177 199 192 206 219 204 220 239 208 194 214 210 222 260 275 263 225 223 250 250 236 241 234 242 233 160 154 176 184 171 186 208 198 201 214 215 203 198 199 197 190 186 183 181 187 188 181 178 178 176 175 173 170 171 172 175 178 179 182 185 184 188 191 192 202 211 217 219 221 229 235 240 244 245 252 264 271 279 285 286 286 286 283
214 200 151 176 197 186 197 218 208 215 240 250 257 229 217 213 218 234 250 246 226 239 251 237 234 241 246 213 152 155 180 185 160 159 201 213 203 209 218 209 201 201 198 190 188 184 182 189 188 180 177 177 176 174 172 170 172 175 178 181 182 185 187 186 189 192 194 202 211 217 218 219 224 230 236 239 243 250 258 268 277 283 287 289 288 283
200 213 173 181 187 177 188 216 212 200 216 246 277 262 233 228 224 208 203 242 252 244 256 247 225 245 249 189 157 145 136 144 158 155 186 231 218 208 214 210 204 203 198 192 191 187 183 187 188 182 177 176 174 173 172 173 175 179 180 181 184 186 187 188 190 192 197 204 210 213 213 218 221 225 233 235 239 250 258 268 278 282 285 288 289 287
205 214 210 188 180 179 192 207 216 208 194 212 239 234 219 216 244 243 195 216 247 253 263 266 251 249 60 92 114 111 114 140 162 164 187 220 232 221 215 209 205 202 199 195 195 192 185 185 186 183 178 174 173 173 176 177 179 182 181 182 185 187 188 191 192 194 201 204 209 214 214 220 222 223 233 236 241 253 260 268 276 279 282 284 287 287
218 210 213 192 177 195 209 199 211 222 206 197 210 225 232 222 221 235 218 214 235 253 255 259 258 159 97 87 94 105 124 152 136 186 210 197 214 242 226 210 202 199 200 196 193 194 192 189 185 180 177 174 172 177 180 180 181 183 183 184 187 190 193 197 196 196 202 204 207 215 217 221 225 227 234 240 246 253 258 266 275 277 277 279 283 286
224 225 222 204 190 214 220 202 205 222 230 225 212 212 225 227 219 226 234 226 227 244 246 249 259 164 115 121 122 113 104 87 108 228 258 231 217 253 237 216 200 196 198 195 189 189 199 200 186 175 175 175 173 179 182 181 183 185 185 185 186 192 198 202 198 193 198 204 208 215 218 221 227 231 236 243 249 254 262 272 274 271 271 279 286 287
213 226 231 228 213 211 219 208 200 212 233 244 228 214 217 222 216 218 237 245 233 235 240 246 246 167 119 127 118 114 128 134 144 187 232 281 311 274 240 217 198 195 195 192 188 185 196 201 187 171 174 175 174 179 183 182 184 185 185 187 189 193 198 202 200 194 195 203 210 214 218 222 227 233 240 247 254 256 262 272 278 283 287 288 288 285
201 217 222 233 227 202 203 205 195 204 221 234 236 229 226 228 223 216 219 229 225 225 231 245 244 178 113 104 102 115 161 155 165 193 205 239 286 275 242 208 194 196 196 194 190 187 190 193 183 171 174 175 175 180 182 182 184 184 184 188 192 195 195 196 201 201 199 203 211 215 218 225 230 237 244 250 259 264 268 278 289 293 286 281 284 287
197 211 209 221 231 212 203 205 201 206 213 220 233 234 230 231 234 230 221 202 209 230 237 250 253 158 133 139 139 152 194 288 275 254 250 246 255 268 252 215 196 193 200 202 195 188 186 184 178 174 175 176 177 179 180 181 182 182 182 187 194 195 190 190 196 201 203 208 216 218 220 227 234 241 248 252 259 265 270 278 282 284 286 292 298 296
199 223 214 215 237 240 224 216 212 215 216 214 222 232 235 233 232 237 240 229 221 230 239 253 266 225 182 184 197 194 189 232 263 272 277 268 254 252 241 222 205 193 197 204 199 191 184 180 180 178 176 177 177 177 178 178 179 180 181 185 191 194 191 191 195 198 203 211 221 224 225 231 236 242 251 256 260 264 267 274 282 291 299 301 297 293
214 233 217 212 234 250 247 231 220 218 220 217 215 222 231 234 233 233 238 240 236 236 238 236 249 253 246 244 264 279 278 261 266 273 277 275 266 251 232 218 209 199 195 197 199 195 188 184 183 178 176 177 176 175 174 175 178 179 177 179 188 197 198 194 194 197 201 207 218 226 229 234 239 243 249 254 258 262 266 273 284 291 292 290 287 290
233 236 224 220 229 241 247 245 240 233 228 227 224 223 225 227 230 232 236 239 237 242 241 188 198 251 260 261 272 293 313 302 287 279 280 283 276 262 245 224 212 207 201 196 197 196 191 188 183 178 179 178 174 172 173 175 177 170 162 173 194 205 203 194 194 198 200 204 213 222 226 232 238 242 246 251 256 260 266 274 280 285 288 287 287 291
234 233 226 232 229 228 234 238 244 248 241 236 237 234 229 225 223 226 234 238 237 240 234 200 208 244 259 271 282 300 325 309 296 284 279 277 269 260 250 235 223 217 209 200 197 196 193 190 185 182 182 179 176 174 173 173 165 149 152 183 202 205 202 194 195 198 200 206 213 218 223 228 235 241 245 250 256 261 268 275 279 285 290 289 289 293
217 224 224 236 240 235 235 232 232 242 244 242 244 242 239 238 234 230 232 236 240 240 228 220 237 248 244 265 275 273 195 252 268 269 273 276 272 263 253 245 235 226 218 208 200 197 194 191 189 187 185 183 179 174 173 171 153 141 166 199 201 198 198 196 197 199 201 208 212 215 222 227 233 241 244 249 257 264 271 276 279 284 289 289 291 295
208 231 231 238 245 246 248 242 235 243 247 246 245 243 239 240 242 240 234 238 247 242 219 222 245 252 247 258 268 259 229 259 274 277 276 279 278 272 262 256 249 238 229 218 205 199 197 194 191 190 188 185 179 174 174 162 135 137 193 210 197 194 198 196 198 200 202 208 212 214 221 229 234 240 244 249 258 265 271 277 278 281 285 288 292 296
214 233 230 229 233 240 243 238 235 244 248 244 240 241 241 240 243 244 237 240 255 257 236 239 247 259 277 284 280 279 277 282 290 293 293 295 292 282 266 259 257 246 232 221 208 201 201 199 194 192 189 184 179 174 164 140 125 160 211 209 191 193 197 194 199 203 204 209 212 213 221 228 234 240 244 250 259 265 271 275 275 278 284 290 295 298
216 232 235 227 229 242 241 236 236 240 242 243 245 246 246 244 247 251 244 236 240 247 256 271 280 291 307 290 277 279 282 288 291 291 291 290 286 279 265 256 252 243 226 216 208 201 201 201 199 197 192 186 180 168 149 140 153 191 207 198 187 193 197 197 200 203 206 210 212 215 221 227 231 237 243 249 256 262 268 271 270 274 284 290 294 297
217 225 238 234 233 246 244 233 232 235 235 247 264 258 250 246 247 253 254 241 232 233 243 259 268 272 275 271 274 276 274 278 283 283 281 277 271 265 259 251 238 227 217 206 200 198 198 199 200 199 195 188 178 161 147 154 175 191 193 188 189 193 195 198 201 205 209 210 212 216 220 224 229 234 241 248 253 258 264 265 264 271 281 285 288 294
233 226 231 237 239 243 241 228 230 242 246 232 247 250 251 249 239 241 249 247 241 240 239 242 247 253 265 270 264 262 270 281 286 276 264 257 250 242 244 243 223 211 207 197 193 192 192 195 198 196 191 184 174 162 157 165 176 181 183 187 191 193 196 199 202 207 211 211 214 216 217 221 226 230 239 248 252 255 258 258 257 264 272 273 276 284
244 244 234 234 234 236 241 237 231 241 229 213 215 218 225 237 236 236 246 243 231 231 237 241 247 251 264 274 267 272 309 302 285 271 246 218 209 217 233 238 207 190 187 182 182 182 185 192 192 187 183 179 171 165 164 167 172 176 184 190 193 195 199 200 204 208 211 213 215 216 217 220 223 229 238 246 252 256 258 255 253 257 261 259 261 271
233 242 244 243 234 228 243 247 238 239 237 221 208 210 218 230 227 203 225 220 193 219 239 242 245 244 249 262 264 294 327 284 274 271 208 169 178 188 200 204 170 158 165 168 170 172 176 182 181 177 176 175 169 166 167 169 173 180 188 195 198 199 201 204 208 210 211 214 216 216 218 221 223 229 236 243 250 256 259 255 252 253 252 250 255 266
232 230 235 242 235 224 236 245 242 246 247 222 214 222 221 217 183 145 223 232 203 218 237 236 237 245 249 257 262 252 265 273 279 293 115 149 174 166 170 178 156 146 154 160 161 163 167 171 172 171 171 170 167 168 170 173 179 186 194 201 204 204 206 209 211 211 212 215 217 218 221 223 226 232 237 244 251 256 261 260 255 252 249 249 257 267
233 228 227 234 237 234 240 246 246 251 260 236 235 231 199 180 174 200 241 250 202 198 222 225 227 242 254 264 271 252 248 270 298 346 116 173 173 151 157 167 152 144 150 154 155 157 161 166 169 171 172 171 170 172 175 180 188 196 202 205 208 211 213 213 214 214 215 216 217 220 222 224 228 235 240 246 251 255 261 260 253 250 250 252 260 269
232 235 235 236 239 237 238 246 249 247 210 166 205 194 156 176 203 226 248 287 97 150 145 170 238 253 268 271 269 262 263 271 291 331 270 203 168 149 158 160 148 149 153 151 150 153 160 168 174 176 175 172 173 177 181 188 198 206 209 210 213 218 219 218 216 214 214 216 220 223 224 225 232 238 241 245 249 254 260 257 251 253 255 254 261 269
229 233 235 237 243 241 238 248 250 250 359 216 199 176 171 202 218 235 304 1 43 118 105 217 264 286 305 292 288 291 288 282 271 263 253 221 170 156 161 154 149 153 148 143 147 156 164 169 174 177 177 175 179 185 190 197 207 215 217 216 218 221 221 219 216 212 213 218 222 224 226 233 239 242 244 247 247 248 253 252 251 255 255 255 262 266
229 230 236 235 242 244 240 248 251 245 280 270 212 164 172 226 225 71 45 43 80 72 35 242 262 290 302 295 297 294 285 282 279 267 251 214 167 161 160 152 155 155 144 144 154 163 167 168 173 179 180 181 187 191 200 213 219 223 227 226 225 224 222 217 215 214 214 218 220 222 229 239 242 243 248 251 247 245 249 251 251 253 253 254 258 258
223 236 248 244 255 256 245 248 264 158 158 197 171 120 132 80 56 52 359 322 317 279 274 260 263 288 297 293 293 288 281 278 272 261 244 203 173 165 156 152 155 153 150 155 157 160 164 165 172 182 185 190 199 203 210 222 227 228 232 235 233 230 226 223 221 216 214 214 214 217 225 233 235 236 241 244 243 244 248 252 253 251 249 251 254 256
228 286 290 296 319 316 245 134 95 97 125 134 111 96 94 81 62 30 350 336 330 319 315 307 301 301 297 290 286 281 275 266 247 230 222 204 182 166 156 155 154 151 156 158 153 158 166 164 168 181 188 198 215 214 205 214 225 230 233 238 241 237 231 228 222 212 208 204 202 209 221 229 234 239 240 238 240 246 249 255 258 255 253 251 250 252
141 157 289 316 325 91 93 103 114 106 99 114 109 87 60 56 48 29 16 359 345 342 335 324 318 312 303 293 283 273 267 261 243 224 216 201 177 162 155 150 146 147 150 143 139 154 168 169 174 179 177 182 201 210 205 209 223 235 239 244 246 239 229 222 216 211 210 205 199 205 218 225 232 243 244 235 238 253 258 258 260 263 264 262 262 265
145 192 230 229 212 198 223 263 129 95 68 69 85 71 47 36 31 27 17 357 347 340 328 323 320 306 295 285 272 262 260 256 239 218 206 192 173 161 153 145 139 140 138 129 127 139 152 162 174 178 173 176 189 211 222 216 219 236 244 247 245 237 225 221 220 218 216 209 200 203 213 218 224 236 247 247 248 257 259 259 265 267 266 274 290 296
108 270 260 240 232 216 181 202 214 110 113 83 67 53 33 22 18 20 14 0 351 338 326 325 313 293 288 282 268 259 259 249 227 198 190 194 179 161 149 142 137 132 128 125 125 130 136 143 154 160 158 160 162 179 228 247 262 264 256 253 256 247 228 218 215 214 211 207 203 206 211 218 222 230 254 269 269 267 270 275 280 283 292 316 309 295
146 253 283 266 260 245 167 160 176 210 182 126 73 44 22 12 9 10 10 6 1 352 342 332 316 300 292 285 276 267 261 247 207 169 185 207 191 159 139 132 130 127 123 121 121 121 121 122 124 123 119 115 108 93 76 332 302 294 281 273 269 247 219 210 208 209 209 209 217 220 216 223 235 240 254 268 268 270 273 263 266 275 301 329 300 280
221 255 273 269 265 265 125 89 40 281 207 113 50 27 14 8 4 3 5 7 5 357 347 333 323 318 308 305 311 304 272 250 190 179 205 201 165 135 127 125 127 128 126 124 121 117 115 115 118 120 116 112 111 107 104 96 348 318 303 293 276 220 211 214 214 217 224 228 235 239 233 236 249 259 268 275 276 274 216 209 241 258 265 279 285 287
283 295 292 282 273 311 55 47 22 351 339 11 12 4 1 4 2 357 358 1 358 351 345 338 330 325 321 330 347 323 283 248 190 214 229 185 136 131 135 135 136 136 134 131 127 123 121 122 122 122 120 119 120 116 107 98 66 349 321 310 278 241 238 230 224 235 251 254 253 258 260 262 269 279 283 282 280 276 251 176 177 267 290 275 285 301